Back to catalog

GEESAT 5-09

AliveCommunicationsLEO
NORAD 65558·PAYLOAD·🇨🇳 China

Launched Sep 8, 2025 from Yellow Sea Launch Area

Loading…

Next Passes (next 24 hours)

TLE

FreshSource: Space-Track

Epoch: Sep 14, 2026, 15:03 UTC

1 65558U 25201J   26257.62719294  .00001176  00000-0  16537-3 0  9991
2 65558  49.9828 343.8174 0008686 251.6056 108.3939 14.84377009 55088

Track GEESAT 5-09 in real time with AllMySat

Download on the App Store